Flag for Canada Weather past 2 weeks in Camrose, Alberta, Canada

Now
61 °F

Sprinkles. Partly sunny.


Feels Like: 61 °F
Forecast: 52 / 57 °F
Wind: 15 mph from Northwest

Location: Edmonton International

Current Time: Jul 24, 2014 at 10:21:52 PM

Latest Report: Jul 24, 2014 at 9:50 PM


Visibility: 15 mi

Pressure: 29.62 "Hg

Humidity: 63%

Dew point: 48 °F

Location of CamroseLocation

Historic Weather in Camrose — Graph

°F

Camrose temperature yesterday

Maximum temperature yesterday: 77 °F (at 4:00 PM)
Minimum temperature yesterday: 57 °F (at 7:00 AM)
Average temperature yesterday: 67 °F

Past Weeks' High & Low Weather Summary

 TemperatureHumidityPressure
High82 °F (Jul 12, 5:00 PM)100% (Jul 11, 6:00 AM)30.28 "Hg (Jul 11, 6:00 AM)
Low39 °F (Jul 21, 6:00 AM)31% (Jul 11, 6:00 PM)29.52 "Hg (Jul 24, 6:00 PM)
Average63 °F74%29.93 "Hg
* Reported Jul 9 8:00 PM — Jul 24 8:00 PM, Camrose, Weather by CustomWeather, © 2014

Note: Actual official high and low records may vary slightly from our data, if they occured in-between our weather recording intervals... More about our weather records

Advertising

Camrose weather history for previous 24 hours

 ConditionsComfort  
Time TempWeatherWind HumidityBarometerVisibility
8:00 PM
Jul 24
64 °FPartly sunny.26 mph49%29.57 "Hg15 mi
7:00 PM72 °FBroken clouds.15 mph47%29.54 "Hg15 mi
6:00 PM75 °FBroken clouds.6 mph34%29.52 "Hg15 mi
5:00 PM73 °FBroken clouds.10 mph38%29.53 "Hg15 mi
4:00 PM77 °FScattered clouds.6 mph34%29.54 "Hg15 mi
3:00 PM77 °FScattered clouds.8 mph39%29.54 "Hg15 mi
2:00 PM75 °FScattered clouds.9 mph47%29.54 "Hg15 mi
1:00 PM75 °FScattered clouds.8 mph47%29.56 "Hg15 mi
12:00 PM72 °FScattered clouds.8 mph61%29.58 "Hg15 mi
11:00 AM70 °FPassing clouds.5 mph64%29.60 "Hg15 mi
10:00 AM68 °FPassing clouds.8 mph69%29.63 "Hg15 mi
9:00 AM66 °FPassing clouds.3 mph68%29.62 "Hg15 mi
8:00 AM63 °FScattered clouds.7 mph83%29.64 "Hg15 mi
7:00 AM59 °FPassing clouds.7 mph94%29.67 "Hg15 mi
6:00 AM57 °FPassing clouds.5 mph100%29.69 "Hg10 mi
5:00 AM59 °FPartly cloudy.8 mph94%29.69 "Hg15 mi
4:00 AM59 °FPartly cloudy.8 mph94%29.68 "Hg15 mi
3:00 AM59 °FPartly cloudy.5 mph94%29.72 "Hg15 mi
2:00 AM63 °FPassing clouds.9 mph88%29.76 "Hg15 mi
1:00 AM63 °FPassing clouds.9 mph88%29.78 "Hg15 mi
12:00 AM63 °FPassing clouds.9 mph88%29.80 "Hg15 mi
11:00 PM
Jul 23
59 °FPassing clouds.7 mph82%29.84 "Hg15 mi
10:00 PM61 °FPartly sunny.8 mph83%29.84 "Hg15 mi
Weather by CustomWeather, © 2014

See weather overviewHow to use our weather pages